QPF
0.01 0.01 0.02 0.02 0.02 0.02 0.03 0.03 0.04 0.04 0.05 0.06 0.06 0.07 0.07 0.06 0.06 0.06 0.05 0.04 0.05 0.07 0.05 0.05 0.04 0.05 0.05 0.04 0.03 0.03 0.05 0.05 0.04 0.03 0.04 0.04 0.04 0.03 0.04 0.04 0.04 0.03 0.02
0.02 0.02 0.03 0.03 0.03 0.03 0.02 0.03 0.03 0.04 0.05 0.05 0.06 0.07 0.08 0.08 0.07 0.05 0.05 0.05 0.06 0.05 0.05 0.07 0.04 0.04 0.05 0.03 0.03 0.04 0.04 0.04 0.04 0.03 0.04 0.05 0.04 0.03 0.03 0.03 0.03 0.03 0.03
0.02 0.02 0.02 0.02 0.03 0.03 0.03 0.03 0.03 0.04 0.05 0.06 0.07 0.06 0.07 0.06 0.06 0.05 0.04 0.05 0.05 0.06 0.08 0.07 0.06 0.06 0.06 0.05 0.04 0.04 0.04 0.04 0.06 0.05 0.05 0.05 0.04 0.03 0.03 0.02 0.03 0.04 0.03
0.01 0.01 0.01 0.01 0.02 0.01 0.01 0.03 0.03 0.03 0.04 0.06 0.06 0.05 0.04 0.03 0.04 0.04 0.04 0.03 0.04 0.04 0.05 0.05 0.05 0.05 0.04 0.05 0.04 0.04 0.04 0.05 0.06 0.05 0.04 0.04 0.03 0.03 0.03 0.03 0.03 0.03 0.04
0.01 0.01 0.01 0.01 0.01 0.01 0.01 0.02 0.02 0.02 0.03 0.03 0.03 0.03 0.03 0.03 0.03 0.03 0.03 0.02 0.03 0.02 0.03 0.03 0.03 0.03 0.04 0.04 0.03 0.03 0.03 0.03 0.03 0.04 0.03 0.04 0.03 0.03 0.03 0.03 0.03 0.03 0.04
0.02 0.02 0.02 0.02 0.01 0.02 0.01 0.01 0.01 0.02 0.02 0.02 0.02 0.02 0.02 0.01 0.03 0.03 0.02 0.02 0.03 0.02 0.02 0.02 0.03 0.03 0.03 0.02 0.01 0.01 0.01 0.01 0.01 0.02 0.03 0.03 0.03 0.03 0.03 0.03 0.03 0.03 0.03
0.03 0.02 0.02 0.02 0.02 0.02 0.02 0.02 0.02 0.02 0.02 0.02 0.02 0.02 0.01 0.01 0.02 0.01 0.01 0.01 0.01 0.02 0.02 0.03 0.02 0.02 0.02 0.02 0.01 0.01 0.01 0.01 0.01 0.01 0.02 0.03 0.04 0.04 0.04 0.03 0.03 0.03 0.03
0.03 0.03 0.02 0.02 0.02 0.02 0.02 0.03 0.03 0.03 0.02 0.02 0.02 0.02 0.02 0.01 0.01 0.01 0.02 0.01 0.01 0.01 0.01 0.02 0.02 0.03 0.03 0.03 0.03 0.03 0.02 0.01 0.01 0.01 0.01 0.02 0.02 0.04 0.05 0.04 0.06 0.05 0.04
0.05 0.04 0.04 0.04 0.04 0.04 0.04 0.04 0.04 0.04 0.03 0.03 0.03 0.03 0.03 0.02 0.02 0.03 0.03 0.01 0.01 0.01 0.01 0.01 0.02 0.02 0.04 0.05 0.04 0.04 0.04 0.03 0.01 0.02 0.02 0.01 0.01 0.01 0.03 0.06 0.06 0.06 0.04
0.08 0.09 0.08 0.06 0.04 0.04 0.04 0.04 0.04 0.03 0.03 0.03 0.02 0.03 0.03 0.03 0.04 0.04 0.03 0.01 0.01 0.01 0.02 0.02 0.02 0.02 0.02 0.04 0.03 0.03 0.03 0.03 0.03 0.03 0.03 0.02 0.01 0.01 0.02 0.05 0.06 0.06 0.05
0.11 0.12 0.08 0.05 0.04 0.04 0.04 0.04 0.04 0.03 0.03 0.02 0.02 0.02 0.02 0.02 0.04 0.04 0.04 0.01 0.01 0.02 0.02 0.02 0.01 0.01 0.01 0.01 0.02 0.03 0.04 0.05 0.04 0.03 0.02 0.02 0.03 0.03 0.03 0.03 0.05 0.07 0.06
0.06 0.05 0.05 0.04 0.03 0.03 0.04 0.04 0.04 0.04 0.04 0.03 0.03 0.03 0.02 0.02 0.03 0.05 0.06 0.02 0.01 0.02 0.02 0.02 0.01 0.01 0.01 0.02 0.03 0.04 0.04 0.03 0.03 0.02 0.02 0.02 0.02 0.02 0.03 0.04 0.05 0.06 0.07
0.04 0.04 0.04 0.04 0.04 0.05 0.05 0.05 0.05 0.05 0.05 0.06 0.06 0.06 0.05 0.04 0.05 0.06 0.05 0.03 0.02 0.01 0.02 0.02 0.02 0.02 0.03 0.03 0.05 0.04 0.03 0.02 0.03 0.03 0.02 0.03 0.02 0.03 0.03 0.04 0.05 0.06 0.06
0.04 0.04 0.04 0.04 0.05 0.06 0.07 0.08 0.08 0.08 0.08 0.08 0.08 0.08 0.09 0.10 0.08 0.06 0.04 0.04 0.04 0.03 0.03 0.03 0.03 0.03 0.03 0.04 0.04 0.03 0.03 0.02 0.03 0.02 0.02 0.02 0.02 0.03 0.03 0.03 0.05 0.05 0.06
0.03 0.03 0.04 0.05 0.05 0.06 0.06 0.06 0.06 0.07 0.07 0.07 0.07 0.07 0.07 0.07 0.08 0.07 0.05 0.04 0.03 0.03 0.03 0.03 0.02 0.03 0.03 0.03 0.03 0.03 0.03 0.02 0.02 0.02 0.02 0.02 0.02 0.03 0.02 0.03 0.04 0.06 0.06
0.04 0.03 0.04 0.04 0.05 0.05 0.05 0.05 0.05 0.05 0.06 0.06 0.06 0.05 0.05 0.05 0.06 0.05 0.03 0.03 0.03 0.03 0.02 0.02 0.02 0.02 0.01 0.02 0.03 0.03 0.04 0.03 0.03 0.03 0.02 0.02 0.02 0.02 0.02 0.03 0.04 0.05 0.05
0.04 0.05 0.04 0.04 0.04 0.04 0.05 0.05 0.05 0.04 0.04 0.04 0.04 0.03 0.02 0.02 0.01 0.01 0.01 0.01 0.01 0.02 0.02 0.02 0.02 0.02 0.02 0.02 0.03 0.04 0.05 0.05 0.05 0.04 0.03 0.03 0.02 0.02 0.02 0.03 0.04 0.04 0.04
0.03 0.03 0.03 0.03 0.03 0.04 0.04 0.03 0.04 0.04 0.03 0.03 0.03 0.03 0.02 0.02 0.01 0.01 0.01 0.01 0.02 0.03 0.02 0.02 0.02 0.03 0.03 0.04 0.04 0.05 0.05 0.07 0.07 0.05 0.04 0.03 0.03 0.03 0.03 0.03 0.04 0.03 0.03
0.01 0.02 0.02 0.02 0.02 0.02 0.02 0.03 0.03 0.03 0.03 0.02 0.02 0.03 0.02 0.02 0.02 0.02 0.02 0.02 0.03 0.03 0.03 0.04 0.04 0.04 0.04 0.04 0.04 0.05 0.05 0.05 0.05 0.05 0.05 0.04 0.04 0.04 0.04 0.04 0.03 0.04 0.04
0.02 0.01 0.01 0.01 0.01 0.01 0.01 0.02 0.03 0.03 0.03 0.03 0.03 0.03 0.03 0.03 0.03 0.03 0.03 0.03 0.03 0.03 0.03 0.03 0.03 0.03 0.04 0.04 0.04 0.05 0.05 0.05 0.04 0.04 0.04 0.04 0.04 0.04 0.04 0.04 0.03 0.03 0.03
0.02 0.02 0.02 0.02 0.02 0.02 0.02 0.02 0.03 0.03 0.04 0.04 0.03 0.03 0.02 0.02 0.03 0.03 0.03 0.03 0.03 0.03 0.04 0.03 0.02 0.02 0.02 0.03 0.03 0.03 0.03 0.04 0.04 0.03 0.03 0.03 0.03 0.03 0.04 0.04 0.03 0.03 0.03
0.02 0.02 0.02 0.02 0.02 0.02 0.03 0.03 0.03 0.03 0.02 0.02 0.03 0.03 0.03 0.02 0.02 0.02 0.02 0.03 0.03 0.04 0.04 0.04 0.03 0.02 0.03 0.03 0.03 0.03 0.03 0.03 0.03 0.02 0.02 0.02 0.03 0.03 0.03 0.03 0.04 0.03 0.03
0.01 0.02 0.03 0.03 0.03 0.03 0.03 0.03 0.03 0.03 0.03 0.03 0.02 0.02 0.03 0.03 0.03 0.03 0.03 0.03 0.03 0.02 0.02 0.02 0.01 0.01 0.02 0.02 0.02 0.03 0.03 0.02 0.02 0.02 0.02 0.02 0.02 0.03 0.03 0.03 0.03 0.04 0.04
0.01 0.01 0.02 0.03 0.03 0.03 0.02 0.02 0.03 0.03 0.03 0.04 0.04 0.04 0.04 0.04 0.04 0.04 0.03 0.02 0.02 0.01 0.01 0.01 0.01 0.01 0.01 0.02 0.02 0.03 0.03 0.03 0.04 0.04 0.03 0.04 0.04 0.03 0.04 0.04 0.04 0.04 0.05
0.02 0.03 0.03 0.04 0.04 0.04 0.04 0.04 0.05 0.05 0.05 0.05 0.05 0.05 0.04 0.03 0.03 0.04 0.04 0.04 0.04 0.03 0.03 0.03 0.02 0.02 0.03 0.03 0.04 0.03 0.04 0.05 0.04 0.03 0.03 0.04 0.05 0.05 0.05 0.05 0.05 0.05 0.05
0.05 0.04 0.04 0.05 0.05 0.05 0.06 0.06 0.08 0.08 0.07 0.07 0.08 0.07 0.07 0.06 0.04 0.04 0.04 0.04 0.04 0.05 0.05 0.05 0.05 0.05 0.06 0.07 0.06 0.06 0.06 0.05 0.05 0.04 0.04 0.04 0.04 0.05 0.06 0.06 0.05 0.06 0.07
MSLP
1009.22 1009.89 1010.54 1011.13 1011.65 1012.06 1012.38 1012.61 1012.77 1012.90 1013.02 1013.13 1013.24 1013.36 1013.45 1013.51 1013.52 1013.48 1013.38 1013.25 1013.09 1012.95 1012.83 1012.76 1012.76 1012.82 1012.93 1013.08 1013.25 1013.41 1013.55 1013.64 1013.68 1013.68 1013.63 1013.55 1013.47 1013.40 1013.37 1013.40 1013.49 1013.66 1013.91
1009.27 1009.91 1010.55 1011.14 1011.65 1012.06 1012.38 1012.60 1012.76 1012.88 1012.99 1013.09 1013.20 1013.31 1013.41 1013.48 1013.50 1013.46 1013.36 1013.20 1013.00 1012.79 1012.59 1012.43 1012.33 1012.31 1012.35 1012.47 1012.63 1012.81 1012.99 1013.15 1013.27 1013.33 1013.34 1013.31 1013.25 1013.18 1013.14 1013.13 1013.19 1013.31 1013.51
1009.59 1010.19 1010.79 1011.34 1011.83 1012.21 1012.50 1012.70 1012.84 1012.94 1013.03 1013.12 1013.22 1013.33 1013.43 1013.50 1013.52 1013.48 1013.37 1013.19 1012.96 1012.70 1012.44 1012.22 1012.05 1011.95 1011.93 1012.00 1012.13 1012.31 1012.50 1012.69 1012.84 1012.94 1012.99 1012.98 1012.92 1012.85 1012.79 1012.75 1012.77 1012.85 1013.01
1010.14 1010.68 1011.22 1011.72 1012.14 1012.48 1012.73 1012.89 1013.00 1013.07 1013.14 1013.21 1013.30 1013.40 1013.49 1013.56 1013.58 1013.54 1013.42 1013.23 1012.97 1012.69 1012.39 1012.12 1011.89 1011.74 1011.67 1011.69 1011.78 1011.93 1012.10 1012.27 1012.41 1012.52 1012.56 1012.55 1012.49 1012.41 1012.32 1012.25 1012.23 1012.28 1012.40
1010.86 1011.32 1011.78 1012.20 1012.55 1012.82 1013.00 1013.12 1013.19 1013.24 1013.29 1013.35 1013.43 1013.52 1013.60 1013.66 1013.67 1013.62 1013.49 1013.29 1013.03 1012.72 1012.41 1012.11 1011.86 1011.67 1011.56 1011.53 1011.57 1011.66 1011.78 1011.91 1012.01 1012.08 1012.10 1012.06 1011.98 1011.87 1011.75 1011.65 1011.59 1011.60 1011.68
1011.63 1012.02 1012.39 1012.71 1012.97 1013.16 1013.28 1013.35 1013.39 1013.41 1013.45 1013.51 1013.58 1013.66 1013.73 1013.78 1013.78 1013.71 1013.57 1013.37 1013.10 1012.80 1012.49 1012.18 1011.92 1011.71 1011.56 1011.49 1011.47 1011.50 1011.55 1011.61 1011.65 1011.66 1011.63 1011.55 1011.43 1011.28 1011.13 1010.99 1010.89 1010.86 1010.90
1012.38 1012.68 1012.96 1013.18 1013.34 1013.45 1013.50 1013.52 1013.53 1013.55 1013.58 1013.64 1013.72 1013.80 1013.87 1013.90 1013.89 1013.81 1013.67 1013.46 1013.20 1012.91 1012.60 1012.31 1012.05 1011.83 1011.66 1011.54 1011.47 1011.43 1011.41 1011.39 1011.36 1011.29 1011.20 1011.06 1010.89 1010.71 1010.52 1010.34 1010.20 1010.12 1010.12
1013.04 1013.27 1013.45 1013.58 1013.64 1013.66 1013.65 1013.63 1013.61 1013.63 1013.67 1013.74 1013.83 1013.92 1013.99 1014.02 1014.00 1013.92 1013.77 1013.57 1013.32 1013.04 1012.75 1012.47 1012.22 1012.00 1011.81 1011.66 1011.53 1011.43 1011.34 1011.24 1011.13 1010.99 1010.83 1010.64 1010.43 1010.20 1009.98 1009.77 1009.59 1009.47 1009.41
1013.61 1013.76 1013.86 1013.88 1013.86 1013.80 1013.73 1013.68 1013.65 1013.66 1013.72 1013.81 1013.92 1014.03 1014.11 1014.15 1014.13 1014.05 1013.91 1013.71 1013.46 1013.20 1012.93 1012.66 1012.41 1012.19 1011.98 1011.80 1011.63 1011.47 1011.31 1011.14 1010.96 1010.77 1010.55 1010.32 1010.07 1009.82 1009.57 1009.33 1009.12 1008.95 1008.85
1014.09 1014.17 1014.19 1014.13 1014.02 1013.90 1013.78 1013.69 1013.66 1013.68 1013.76 1013.88 1014.02 1014.15 1014.25 1014.30 1014.29 1014.22 1014.08 1013.88 1013.65 1013.39 1013.13 1012.86 1012.61 1012.37 1012.15 1011.93 1011.72 1011.50 1011.29 1011.07 1010.84 1010.60 1010.35 1010.10 1009.84 1009.57 1009.30 1009.05 1008.82 1008.62 1008.48
1014.50 1014.52 1014.46 1014.33 1014.16 1013.98 1013.82 1013.72 1013.68 1013.72 1013.82 1013.97 1014.14 1014.30 1014.42 1014.49 1014.50 1014.43 1014.29 1014.10 1013.86 1013.61 1013.34 1013.06 1012.79 1012.53 1012.27 1012.02 1011.76 1011.51 1011.25 1010.99 1010.73 1010.47 1010.21 1009.96 1009.70 1009.44 1009.18 1008.93 1008.69 1008.48 1008.32
1014.86 1014.82 1014.70 1014.51 1014.29 1014.07 1013.89 1013.78 1013.74 1013.80 1013.92 1014.09 1014.29 1014.48 1014.63 1014.72 1014.74 1014.68 1014.55 1014.35 1014.11 1013.84 1013.54 1013.24 1012.94 1012.64 1012.34 1012.04 1011.74 1011.45 1011.16 1010.88 1010.61 1010.36 1010.11 1009.87 1009.64 1009.41 1009.17 1008.94 1008.72 1008.52 1008.34
1015.17 1015.08 1014.91 1014.68 1014.42 1014.18 1013.99 1013.87 1013.85 1013.92 1014.06 1014.26 1014.49 1014.70 1014.87 1014.98 1015.01 1014.96 1014.83 1014.62 1014.36 1014.06 1013.73 1013.39 1013.04 1012.68 1012.33 1011.99 1011.65 1011.33 1011.03 1010.74 1010.48 1010.24 1010.02 1009.82 1009.63 1009.44 1009.24 1009.05 1008.85 1008.67 1008.51
1015.42 1015.29 1015.08 1014.82 1014.54 1014.29 1014.10 1013.99 1013.98 1014.07 1014.23 1014.45 1014.69 1014.92 1015.12 1015.24 1015.28 1015.23 1015.10 1014.88 1014.59 1014.26 1013.88 1013.49 1013.08 1012.67 1012.27 1011.88 1011.52 1011.17 1010.86 1010.59 1010.35 1010.14 1009.96 1009.80 1009.65 1009.50 1009.35 1009.19 1009.03 1008.88 1008.74
1015.60 1015.44 1015.20 1014.93 1014.65 1014.40 1014.22 1014.13 1014.13 1014.22 1014.40 1014.63 1014.88 1015.13 1015.33 1015.47 1015.51 1015.47 1015.32 1015.09 1014.78 1014.40 1013.99 1013.54 1013.08 1012.63 1012.18 1011.76 1011.38 1011.03 1010.73 1010.47 1010.26 1010.09 1009.95 1009.83 1009.72 1009.61 1009.49 1009.36 1009.23 1009.09 1008.98
1015.71 1015.52 1015.27 1015.00 1014.73 1014.50 1014.33 1014.25 1014.26 1014.37 1014.55 1014.78 1015.04 1015.29 1015.49 1015.63 1015.68 1015.63 1015.48 1015.23 1014.90 1014.50 1014.05 1013.57 1013.08 1012.59 1012.12 1011.69 1011.30 1010.97 1010.69 1010.46 1010.28 1010.15 1010.04 1009.94 1009.85 1009.76 1009.65 1009.52 1009.40 1009.27 1009.17
1015.77 1015.56 1015.31 1015.05 1014.79 1014.58 1014.43 1014.36 1014.39 1014.49 1014.67 1014.90 1015.15 1015.39 1015.59 1015.72 1015.77 1015.71 1015.56 1015.30 1014.96 1014.55 1014.09 1013.60 1013.10 1012.61 1012.15 1011.73 1011.37 1011.06 1010.82 1010.62 1010.48 1010.37 1010.28 1010.19 1010.09 1009.98 1009.85 1009.70 1009.54 1009.39 1009.26
1015.80 1015.59 1015.35 1015.10 1014.86 1014.67 1014.54 1014.48 1014.51 1014.61 1014.78 1015.00 1015.23 1015.45 1015.63 1015.75 1015.78 1015.72 1015.57 1015.32 1014.98 1014.58 1014.13 1013.65 1013.17 1012.72 1012.29 1011.92 1011.60 1011.35 1011.15 1011.00 1010.88 1010.78 1010.69 1010.58 1010.45 1010.29 1010.10 1009.89 1009.67 1009.46 1009.28
1015.85 1015.65 1015.42 1015.18 1014.97 1014.79 1014.67 1014.63 1014.65 1014.74 1014.90 1015.08 1015.29 1015.48 1015.64 1015.73 1015.75 1015.69 1015.53 1015.29 1014.97 1014.60 1014.18 1013.75 1013.33 1012.93 1012.57 1012.26 1012.01 1011.82 1011.68 1011.57 1011.47 1011.38 1011.27 1011.12 1010.93 1010.70 1010.42 1010.12 1009.80 1009.50 1009.23
1015.94 1015.74 1015.53 1015.31 1015.12 1014.96 1014.85 1014.81 1014.83 1014.91 1015.03 1015.19 1015.36 1015.51 1015.63 1015.70 1015.70 1015.62 1015.47 1015.24 1014.95 1014.61 1014.25 1013.89 1013.54 1013.22 1012.95 1012.72 1012.56 1012.43 1012.34 1012.27 1012.19 1012.09 1011.95 1011.75 1011.49 1011.16 1010.78 1010.37 1009.94 1009.53 1009.15
1016.08 1015.89 1015.68 1015.48 1015.30 1015.16 1015.07 1015.03 1015.04 1015.10 1015.20 1015.32 1015.45 1015.56 1015.64 1015.66 1015.64 1015.54 1015.39 1015.17 1014.91 1014.63 1014.33 1014.04 1013.77 1013.54 1013.36 1013.23 1013.14 1013.08 1013.04 1013.00 1012.94 1012.82 1012.64 1012.39 1012.05 1011.64 1011.16 1010.64 1010.10 1009.57 1009.08
1016.23 1016.04 1015.85 1015.67 1015.51 1015.38 1015.30 1015.26 1015.27 1015.32 1015.39 1015.47 1015.55 1015.62 1015.65 1015.63 1015.57 1015.45 1015.29 1015.09 1014.85 1014.61 1014.37 1014.15 1013.96 1013.82 1013.72 1013.67 1013.65 1013.65 1013.66 1013.64 1013.58 1013.45 1013.24 1012.93 1012.54 1012.05 1011.50 1010.89 1010.26 1009.64 1009.06
1016.36 1016.17 1015.99 1015.82 1015.68 1015.57 1015.51 1015.48 1015.48 1015.52 1015.56 1015.61 1015.65 1015.67 1015.65 1015.59 1015.49 1015.34 1015.16 1014.96 1014.74 1014.53 1014.34 1014.18 1014.06 1013.98 1013.95 1013.95 1013.99 1014.03 1014.06 1014.06 1013.99 1013.86 1013.62 1013.29 1012.86 1012.34 1011.74 1011.09 1010.41 1009.74 1009.09
1016.42 1016.23 1016.05 1015.89 1015.77 1015.69 1015.64 1015.63 1015.64 1015.66 1015.69 1015.72 1015.72 1015.69 1015.62 1015.51 1015.37 1015.19 1014.99 1014.78 1014.57 1014.38 1014.21 1014.09 1014.01 1013.97 1013.98 1014.03 1014.09 1014.15 1014.19 1014.19 1014.12 1013.98 1013.74 1013.40 1012.97 1012.44 1011.84 1011.19 1010.52 1009.83 1009.17
1016.36 1016.17 1016.00 1015.86 1015.77 1015.71 1015.68 1015.68 1015.70 1015.73 1015.75 1015.75 1015.72 1015.65 1015.54 1015.39 1015.21 1015.00 1014.77 1014.55 1014.33 1014.14 1013.99 1013.88 1013.81 1013.80 1013.82 1013.87 1013.94 1014.00 1014.03 1014.03 1013.96 1013.81 1013.58 1013.26 1012.85 1012.35 1011.80 1011.19 1010.55 1009.90 1009.26
1016.18 1015.99 1015.84 1015.72 1015.65 1015.62 1015.62 1015.64 1015.68 1015.71 1015.72 1015.70 1015.65 1015.54 1015.40 1015.22 1015.00 1014.76 1014.51 1014.27 1014.04 1013.85 1013.69 1013.58 1013.51 1013.49 1013.50 1013.54 1013.58 1013.62 1013.64 1013.62 1013.54 1013.40 1013.18 1012.89 1012.52 1012.09 1011.60 1011.06 1010.50 1009.91 1009.33
Thickness
5803 5799 5796 5793 5790 5787 5784 5782 5780 5778 5774 5771 5768 5765 5762 5760 5758 5755 5753 5751 5749 5747 5745 5743 5740 5740 5738 5738 5736 5734 5732 5727 5719 5720 5721 5720 5718 5715 5713 5711 5708 5706 5703
5802 5798 5794 5791 5788 5785 5782 5780 5778 5775 5772 5769 5766 5763 5760 5757 5755 5752 5749 5747 5745 5742 5740 5738 5737 5736 5733 5732 5730 5728 5726 5724 5719 5713 5713 5713 5711 5710 5708 5706 5705 5702 5700
5801 5795 5791 5788 5785 5782 5780 5777 5774 5771 5768 5766 5763 5759 5756 5753 5751 5748 5746 5744 5741 5739 5737 5734 5732 5730 5727 5726 5724 5722 5720 5720 5716 5711 5708 5707 5705 5704 5701 5701 5700 5698 5696
5798 5793 5788 5785 5782 5779 5776 5773 5770 5767 5764 5762 5759 5756 5754 5751 5747 5745 5742 5740 5737 5735 5733 5730 5728 5726 5723 5721 5719 5717 5715 5712 5710 5706 5703 5701 5700 5699 5696 5693 5691 5692 5690
5795 5790 5786 5783 5780 5776 5773 5770 5766 5764 5761 5758 5755 5753 5750 5747 5744 5740 5737 5736 5733 5730 5729 5726 5723 5721 5719 5717 5715 5711 5709 5706 5703 5700 5697 5695 5693 5690 5688 5688 5686 5685 5684
5792 5787 5783 5779 5776 5772 5769 5766 5762 5759 5756 5753 5750 5748 5745 5743 5739 5736 5733 5731 5729 5726 5723 5721 5719 5717 5714 5711 5709 5707 5704 5701 5697 5694 5692 5689 5687 5686 5685 5684 5681 5678 5675
5787 5783 5780 5776 5772 5768 5766 5762 5758 5755 5752 5749 5746 5743 5739 5736 5734 5731 5729 5727 5725 5722 5719 5716 5715 5713 5709 5706 5704 5701 5699 5696 5694 5691 5687 5685 5684 5683 5680 5678 5676 5674 5672
5782 5778 5775 5771 5768 5764 5760 5757 5754 5751 5748 5744 5741 5738 5734 5731 5728 5725 5723 5721 5720 5718 5715 5712 5708 5705 5704 5700 5698 5696 5693 5691 5689 5686 5684 5683 5682 5680 5678 5675 5672 5671 5670
5777 5773 5770 5766 5762 5758 5754 5751 5749 5745 5742 5739 5736 5733 5729 5726 5723 5720 5716 5715 5714 5712 5711 5708 5705 5701 5698 5695 5692 5689 5687 5685 5684 5683 5681 5679 5677 5675 5673 5670 5666 5663 5661
5771 5768 5765 5761 5756 5752 5749 5746 5744 5740 5737 5735 5732 5730 5726 5722 5718 5714 5710 5710 5708 5707 5706 5703 5700 5696 5693 5689 5686 5683 5680 5679 5678 5676 5673 5672 5671 5670 5668 5665 5662 5658 5656
5765 5762 5758 5754 5750 5747 5744 5741 5737 5734 5731 5729 5727 5725 5723 5719 5714 5710 5706 5704 5703 5701 5699 5697 5695 5692 5687 5684 5680 5678 5676 5674 5671 5669 5668 5666 5666 5664 5663 5660 5658 5655 5652
5759 5755 5750 5747 5745 5742 5737 5733 5731 5727 5724 5721 5719 5717 5716 5714 5710 5706 5701 5698 5696 5694 5693 5693 5690 5686 5682 5678 5675 5674 5671 5667 5665 5663 5661 5660 5659 5658 5657 5656 5654 5652 5650
5751 5747 5744 5741 5738 5735 5730 5726 5723 5721 5718 5715 5714 5710 5708 5709 5706 5702 5697 5693 5690 5687 5688 5686 5682 5678 5676 5673 5671 5667 5664 5661 5659 5657 5656 5655 5655 5654 5652 5650 5649 5647 5645
5741 5738 5735 5732 5730 5727 5724 5721 5718 5714 5712 5710 5706 5704 5703 5702 5699 5695 5691 5687 5683 5680 5678 5677 5674 5672 5670 5668 5666 5662 5659 5657 5654 5652 5651 5651 5650 5648 5645 5643 5641 5639 5637
5733 5730 5728 5726 5723 5719 5717 5714 5712 5710 5707 5703 5701 5698 5695 5691 5689 5686 5683 5680 5677 5673 5669 5668 5667 5666 5664 5662 5661 5659 5656 5652 5649 5647 5645 5643 5642 5640 5638 5637 5634 5632 5629
5724 5722 5720 5718 5716 5714 5710 5708 5705 5702 5700 5697 5694 5690 5688 5684 5681 5677 5674 5671 5668 5664 5661 5661 5660 5660 5658 5656 5654 5652 5650 5647 5645 5642 5639 5637 5635 5633 5630 5629 5627 5624 5622
5716 5714 5713 5711 5709 5706 5704 5700 5696 5694 5691 5688 5685 5682 5679 5676 5673 5670 5666 5663 5660 5656 5654 5655 5654 5654 5653 5651 5648 5645 5643 5641 5638 5635 5632 5630 5628 5626 5623 5621 5620 5618 5616
5709 5707 5705 5704 5703 5701 5698 5695 5692 5688 5683 5681 5678 5675 5672 5668 5665 5661 5657 5654 5653 5651 5650 5649 5648 5647 5646 5643 5641 5638 5636 5634 5631 5628 5625 5623 5621 5618 5616 5614 5613 5611 5609
5701 5700 5697 5696 5695 5694 5691 5688 5685 5682 5679 5676 5672 5668 5663 5659 5655 5651 5647 5646 5647 5646 5645 5644 5643 5641 5639 5637 5634 5631 5628 5625 5623 5620 5618 5616 5614 5611 5609 5608 5606 5604 5602
5692 5689 5687 5686 5685 5684 5682 5679 5677 5675 5671 5668 5665 5661 5656 5652 5649 5645 5641 5640 5640 5639 5638 5637 5636 5634 5631 5629 5626 5623 5620 5617 5615 5612 5611 5608 5606 5604 5602 5600 5599 5597 5595
5683 5682 5679 5678 5676 5674 5672 5670 5668 5666 5663 5660 5658 5656 5650 5647 5645 5642 5639 5636 5634 5632 5630 5628 5627 5625 5623 5621 5618 5615 5613 5610 5607 5605 5603 5601 5598 5596 5594 5593 5591 5590 5587
5674 5674 5673 5670 5668 5666 5664 5663 5660 5658 5656 5653 5650 5648 5643 5640 5638 5635 5633 5630 5628 5625 5622 5619 5617 5616 5614 5612 5608 5605 5603 5600 5598 5596 5594 5592 5590 5588 5586 5584 5583 5581 5579
5666 5666 5664 5662 5660 5657 5656 5655 5653 5650 5647 5645 5643 5640 5636 5633 5631 5627 5624 5621 5619 5616 5614 5611 5609 5607 5604 5601 5597 5594 5590 5588 5587 5585 5584 5582 5581 5579 5577 5576 5574 5572 5570
5658 5657 5655 5653 5651 5649 5648 5646 5644 5641 5639 5636 5634 5631 5628 5625 5622 5619 5616 5614 5611 5608 5606 5603 5600 5598 5595 5591 5587 5583 5580 5577 5575 5574 5573 5571 5571 5570 5569 5567 5565 5564 5562
5650 5649 5647 5645 5643 5641 5638 5635 5633 5630 5628 5626 5624 5622 5620 5617 5615 5611 5608 5605 5602 5599 5596 5593 5590 5588 5585 5580 5576 5572 5569 5566 5563 5562 5561 5561 5561 5561 5560 5559 5557 5556 5555
5642 5640 5638 5636 5634 5631 5628 5625 5622 5619 5618 5617 5615 5612 5609 5607 5604 5602 5598 5595 5591 5589 5585 5582 5579 5576 5573 5569 5564 5561 5557 5555 5553 5551 5550 5550 5551 5551 5551 5549 5549 5548 5547